Change the Weather History Date:

Wednesday, June 19, 2013

  Actual Average (KDTW) Record (KDTW)
Temperature  
Mean Temperature 62 °F 71 °F  
Max Temperature 69 °F 81 °F 95 °F (1995)
Min Temperature 55 °F 61 °F 46 °F (1926)
Degree Days  
Heating Degree Days 3 1  
Month to date heating degree days 31  
Since 1 June heating degree days 31  
Since 1 July heating degree days 6133  
Cooling Degree Days 0 6  
Month to date cooling degree days 85  
Year to date cooling degree days 133  
Since 1 June cooling degree days 85  
Growing Degree Days 12 (Base 50)    
Moisture  
Dew Point 50 °F    
Average Humidity 61    
Maximum Humidity 72    
Minimum Humidity 42    
Precipitation  
Precipitation 0.00 in 0.11 in 2.59 in (2009)
Month to date precipitation 2.30  
Year to date precipitation 14.84  
Snow  
Snow 0.00 in 0.00 in 0.00 in ()
Month to date snowfall 0.0  
Since 1 June snowfall 0.0  
Since 1 July snowfall 42.5  
Snow Depth -    
Sea Level Pressure  
Sea Level Pressure 30.13 in    
Wind  
Wind Speed 7 mph (East)    
Max Wind Speed 12 mph    
Max Gust Speed -    
Visibility 10 miles    
Events      
T = Trace of Precipitation, MM = Missing Value Source: NWS Daily Summary

Daily Weather History Graph

Daily Weather History Graph

Search for Another Location

Airport or City:

Trip Planner

Search our weather history database for the weather conditions in past years. The results will help you decide how hot, cold, wet, or windy it might be!

Date:

Astronomy

Jun. 19, 2013 Rise Set
Actual Time 5:56 AM EDT 9:11 PM EDT
Civil Twilight 5:21 AM EDT 9:46 PM EDT
Nautical Twilight 4:37 AM EDT 10:30 PM EDT
Astronomical Twilight 3:43 AM EDT 11:25 PM EDT
Moon 5:00 PM EDT (6/19) 2:44 AM EDT (6/19)
Length of Visible Light 16h 24m
Length of Day
15h 15m
Waxing Gibbous, 80% of the Moon is Illuminated
Jun 19
Waxing Gibbous
Jun 23
Full
Jun 30
Last Quarter
Jul 8
New
Jul 15
First Quarter

Hourly Weather History & Observations

Time (EDT) Temp. Dew Point Humidity Pressure Visibility Wind Dir Wind Speed Gust Speed Precip Events Conditions
12:14 AM 60.8 °F 37.4 °F 42% 30.06 in 10.0 mi NNE 11.5 mph - N/A   Clear
12:34 AM 59.0 °F 37.4 °F 45% 30.06 in 10.0 mi NNE 8.1 mph - N/A   Clear
12:54 AM 59.0 °F 37.4 °F 45% 30.07 in 10.0 mi North 6.9 mph - N/A   Clear
1:14 AM 57.2 °F 39.2 °F 51% 30.06 in 10.0 mi North 6.9 mph - N/A   Clear
1:34 AM 57.2 °F 39.2 °F 51% 30.06 in 10.0 mi North 6.9 mph - N/A   Clear
1:54 AM 57.2 °F 41.0 °F 55% 30.07 in 10.0 mi NNE 5.8 mph - N/A   Clear
2:14 AM 57.2 °F 42.8 °F 59% 30.07 in 10.0 mi NNE 5.8 mph - N/A   Clear
2:34 AM 57.2 °F 42.8 °F 59% 30.07 in 10.0 mi North 5.8 mph - N/A   Clear
2:54 AM 55.4 °F 42.8 °F 63% 30.07 in 10.0 mi North 6.9 mph - N/A   Clear
3:15 AM 55.4 °F 44.6 °F 67% 30.08 in 10.0 mi NNE 8.1 mph - N/A   Clear
3:34 AM 55.4 °F 44.6 °F 67% 30.08 in 10.0 mi NNE 8.1 mph - N/A   Clear
3:54 AM 55.4 °F 44.6 °F 67% 30.08 in 10.0 mi NNE 8.1 mph - N/A   Clear
4:15 AM 55.4 °F 46.4 °F 72% 30.08 in 10.0 mi NNE 8.1 mph - N/A   Clear
4:34 AM 55.4 °F 46.4 °F 72% 30.09 in 10.0 mi NNE 6.9 mph - N/A   Clear
4:54 AM 55.4 °F 46.4 °F 72% 30.09 in 10.0 mi NNE 5.8 mph - N/A   Clear
5:14 AM 55.4 °F 46.4 °F 72% 30.09 in 10.0 mi NNE 6.9 mph - N/A   Clear
5:34 AM 55.4 °F 46.4 °F 72% 30.09 in 10.0 mi NNE 5.8 mph - N/A   Clear
5:54 AM 55.4 °F 46.4 °F 72% 30.10 in 10.0 mi NNE 5.8 mph - N/A   Clear
6:14 AM 55.4 °F 46.4 °F 72% 30.11 in 10.0 mi NNE 8.1 mph - N/A   Clear
6:34 AM 55.4 °F 46.4 °F 72% 30.12 in 10.0 mi NNE 8.1 mph - N/A   Clear
6:54 AM 57.2 °F 48.2 °F 72% 30.12 in 10.0 mi NNE 9.2 mph - N/A   Clear
7:14 AM 57.2 °F 48.2 °F 72% 30.13 in 10.0 mi NE 9.2 mph - N/A   Clear
7:34 AM 57.2 °F 48.2 °F 72% 30.14 in 10.0 mi NNE 6.9 mph - N/A   Clear
7:55 AM 59.0 °F 48.2 °F 67% 30.14 in 10.0 mi NE 6.9 mph - N/A   Clear
8:14 AM 60.8 °F 48.2 °F 63% 30.15 in 10.0 mi NE 6.9 mph - N/A   Clear
8:34 AM 60.8 °F 48.2 °F 63% 30.16 in 10.0 mi ENE 6.9 mph - N/A   Clear
8:55 AM 62.6 °F 48.2 °F 59% 30.15 in 10.0 mi ENE 8.1 mph - N/A   Clear
9:14 AM 62.6 °F 50.0 °F 63% 30.16 in 10.0 mi NE 6.9 mph - N/A   Clear
9:34 AM 64.4 °F 50.0 °F 59% 30.16 in 10.0 mi NE 8.1 mph - N/A   Clear
9:55 AM 64.4 °F 50.0 °F 59% 30.16 in 10.0 mi NE 5.8 mph - N/A   Clear
10:14 AM 64.4 °F 50.0 °F 59% 30.16 in 10.0 mi NE 4.6 mph - N/A   Clear
10:34 AM 66.2 °F 50.0 °F 56% 30.16 in 10.0 mi ENE 4.6 mph - N/A   Clear
10:54 AM 66.2 °F 50.0 °F 56% 30.16 in 10.0 mi NNE 4.6 mph - N/A   Clear
11:14 AM 68.0 °F 50.0 °F 52% 30.15 in 10.0 mi NE 4.6 mph - N/A   Clear
11:34 AM 68.0 °F 51.8 °F 56% 30.16 in 10.0 mi NE 3.5 mph - N/A   Clear
11:54 AM 69.8 °F 51.8 °F 53% 30.16 in 10.0 mi ENE 5.8 mph - N/A   Clear
12:14 PM 69.8 °F 50.0 °F 49% 30.16 in 10.0 mi ENE 3.5 mph - N/A   Clear
12:34 PM 69.8 °F 53.6 °F 56% 30.16 in 10.0 mi South 6.9 mph - N/A   Clear
12:54 PM 69.8 °F 53.6 °F 56% 30.16 in 10.0 mi South 8.1 mph - N/A   Scattered Clouds
1:14 PM 69.8 °F 55.4 °F 60% 30.16 in 10.0 mi South 8.1 mph - N/A   Clear
1:35 PM 69.8 °F 55.4 °F 60% 30.15 in 10.0 mi South 8.1 mph - N/A   Clear
1:54 PM 69.8 °F 55.4 °F 60% 30.15 in 10.0 mi South 8.1 mph - N/A   Clear
2:14 PM 69.8 °F 57.2 °F 64% 30.15 in 10.0 mi SSE 9.2 mph - N/A   Clear
2:35 PM 69.8 °F 57.2 °F 64% 30.15 in 10.0 mi South 9.2 mph - N/A   Clear
2:54 PM 69.8 °F 57.2 °F 64% 30.15 in 10.0 mi South 9.2 mph - N/A   Clear
3:14 PM 69.8 °F 57.2 °F 64% 30.14 in 10.0 mi SSE 9.2 mph - N/A   Clear
3:34 PM 69.8 °F 57.2 °F 64% 30.14 in 10.0 mi SSE 9.2 mph - N/A   Clear
3:54 PM 69.8 °F 57.2 °F 64% 30.14 in 10.0 mi SSE 9.2 mph - N/A   Clear
4:14 PM 69.8 °F 57.2 °F 64% 30.14 in 10.0 mi SSE 8.1 mph - N/A   Clear
4:34 PM 69.8 °F 55.4 °F 60% 30.14 in 10.0 mi SSE 9.2 mph - N/A   Clear
4:54 PM 68.0 °F 55.4 °F 64% 30.14 in 10.0 mi SSE 9.2 mph - N/A   Clear
5:14 PM 68.0 °F 53.6 °F 60% 30.14 in 10.0 mi SSE 10.4 mph - N/A   Clear
5:34 PM 69.8 °F 51.8 °F 53% 30.13 in 10.0 mi SSE 9.2 mph - N/A   Clear
5:54 PM 68.0 °F 51.8 °F 56% 30.13 in 10.0 mi SSE 9.2 mph - N/A   Clear
6:14 PM 68.0 °F 50.0 °F 52% 30.13 in 10.0 mi SSE 9.2 mph - N/A   Clear
6:34 PM 68.0 °F 51.8 °F 56% 30.13 in 10.0 mi SSE 10.4 mph - N/A   Clear
6:54 PM 68.0 °F 50.0 °F 52% 30.13 in 10.0 mi SSE 8.1 mph - N/A   Clear
7:15 PM 68.0 °F 50.0 °F 52% 30.13 in 10.0 mi SSE 6.9 mph - N/A   Clear
7:34 PM 66.2 °F 48.2 °F 52% 30.13 in 10.0 mi SSE 8.1 mph - N/A   Clear
7:54 PM 66.2 °F 50.0 °F 56% 30.13 in 10.0 mi SSE 5.8 mph - N/A   Clear
8:14 PM 66.2 °F 50.0 °F 56% 30.13 in 10.0 mi SSE 6.9 mph - N/A   Clear
8:34 PM 66.2 °F 51.8 °F 60% 30.13 in 10.0 mi SSE 4.6 mph - N/A   Clear
8:55 PM 64.4 °F 51.8 °F 64% 30.13 in 10.0 mi SE 3.5 mph - N/A   Clear
9:14 PM 64.4 °F 51.8 °F 64% 30.13 in 10.0 mi SE 3.5 mph - N/A   Clear
9:34 PM 64.4 °F 51.8 °F 64% 30.14 in 10.0 mi Calm Calm - N/A   Clear
9:55 PM 64.4 °F 51.8 °F 64% 30.15 in 10.0 mi Calm Calm - N/A   Clear
10:14 PM 64.4 °F 51.8 °F 64% 30.16 in 10.0 mi Calm Calm - N/A   Clear
10:34 PM 62.6 °F 53.6 °F 72% 30.17 in 10.0 mi Calm Calm - N/A   Clear
10:54 PM 62.6 °F 53.6 °F 72% 30.17 in 10.0 mi Calm Calm - N/A   Clear
11:14 PM 62.6 °F 53.6 °F 72% 30.17 in 10.0 mi SE 3.5 mph - N/A   Clear
11:35 PM 62.6 °F 51.8 °F 68% 30.16 in 10.0 mi ESE 3.5 mph - N/A   Clear
11:54 PM 62.6 °F 51.8 °F 68% 30.16 in 10.0 mi Calm Calm - N/A   Clear